Time,TemperatureF,DewpointF,PressureIn,WindDirection,WindDirectionDegrees,WindSpeedMPH,WindSpeedGustMPH,Humidity,HourlyPrecipIn,Conditions,Clouds,dailyrainin,SolarRadiationWatts/m^2,SoftwareType,DateUTC
2013-10-21 00:02:00,50.0,34.0,-100.00,North,357,1.0,4.0,55,0.00,,,-99.99,0.000000,,2013-10-21 07:02:00,
2013-10-21 00:12:00,50.0,34.0,-100.00,North,357,1.0,4.0,55,0.00,,,-99.99,0.000000,,2013-10-21 07:12:00,
2013-10-21 00:22:00,50.0,34.0,-100.00,North,357,1.0,4.0,55,0.00,,,-99.99,0.000000,,2013-10-21 07:22:00,
2013-10-21 00:31:00,49.0,32.0,-100.00,SSW,196,3.0,5.0,52,0.00,,,0.00,0.000000,,2013-10-21 07:31:00,
2013-10-21 00:52:00,49.0,32.0,-100.00,SSW,196,3.0,5.0,52,0.00,,,0.00,0.000000,,2013-10-21 07:52:00,
2013-10-21 01:02:00,49.0,32.0,-100.00,SSW,196,3.0,5.0,52,0.00,,,0.00,0.000000,,2013-10-21 08:02:00,
2013-10-21 01:12:00,49.0,32.0,-100.00,SSW,196,3.0,5.0,52,0.00,,,0.00,0.000000,,2013-10-21 08:12:00,
2013-10-21 01:21:00,49.0,32.0,-100.00,SSW,196,3.0,5.0,52,0.00,,,0.00,0.000000,,2013-10-21 08:21:00,
2013-10-21 01:31:00,48.0,33.0,-100.00,SW,215,2.0,4.0,55,-99.99,,,0.00,0.000000,,2013-10-21 08:31:00,
2013-10-21 01:52:00,48.0,33.0,-100.00,SW,215,2.0,4.0,55,-99.99,,,0.00,0.000000,,2013-10-21 08:52:00,
2013-10-21 02:02:00,48.0,33.0,-100.00,SW,215,2.0,4.0,55,-99.99,,,0.00,0.000000,,2013-10-21 09:02:00,
2013-10-21 02:11:00,48.0,33.0,-100.00,SW,215,2.0,4.0,55,-99.99,,,0.00,0.000000,,2013-10-21 09:11:00,
2013-10-21 02:22:00,48.0,33.0,-100.00,SW,215,2.0,4.0,55,-99.99,,,0.00,0.000000,,2013-10-21 09:22:00,
2013-10-21 02:31:00,48.0,32.0,-100.00,South,177,0.0,4.0,54,0.00,,,0.00,0.000000,,2013-10-21 09:31:00,
2013-10-21 03:13:00,48.0,32.0,-100.00,South,177,0.0,4.0,54,0.00,,,0.00,0.000000,,2013-10-21 10:13:00,
2013-10-21 03:22:00,48.0,32.0,-100.00,South,177,0.0,4.0,54,0.00,,,0.00,0.000000,,2013-10-21 10:22:00,
2013-10-21 03:31:00,48.0,34.0,-100.00,SSW,208,3.0,4.0,58,-99.99,,,0.00,0.000000,,2013-10-21 10:31:00,
2013-10-21 04:12:00,48.0,34.0,-100.00,SSW,208,3.0,4.0,58,-99.99,,,0.00,0.000000,,2013-10-21 11:12:00,
2013-10-21 04:22:00,48.0,34.0,-100.00,SSW,208,3.0,4.0,58,-99.99,,,0.00,0.000000,,2013-10-21 11:22:00,
2013-10-21 04:31:00,46.0,30.0,-100.00,SSW,205,2.0,5.0,54,-99.99,,,0.00,0.000000,,2013-10-21 11:31:00,
2013-10-21 04:52:00,46.0,30.0,-100.00,SSW,205,2.0,5.0,54,-99.99,,,0.00,0.000000,,2013-10-21 11:52:00,
2013-10-21 05:01:00,46.0,30.0,-100.00,SSW,205,2.0,5.0,54,-99.99,,,0.00,0.000000,,2013-10-21 12:01:00,
2013-10-21 05:12:00,46.0,30.0,-100.00,SSW,205,2.0,5.0,54,-99.99,,,0.00,0.000000,,2013-10-21 12:12:00,
2013-10-21 05:22:00,46.0,30.0,-100.00,SSW,205,2.0,5.0,54,-99.99,,,0.00,0.000000,,2013-10-21 12:22:00,
2013-10-21 05:31:00,45.0,33.0,-100.00,SSW,212,2.0,5.0,62,0.00,,,-99.99,0.000000,,2013-10-21 12:31:00,
2013-10-21 05:52:00,45.0,33.0,-100.00,SSW,212,2.0,5.0,62,0.00,,,-99.99,0.000000,,2013-10-21 12:52:00,
2013-10-21 06:02:00,45.0,33.0,-100.00,SSW,212,2.0,5.0,62,0.00,,,-99.99,0.000000,,2013-10-21 13:02:00,
2013-10-21 06:11:00,45.0,33.0,-100.00,SSW,212,2.0,5.0,62,0.00,,,-99.99,0.000000,,2013-10-21 13:11:00,
2013-10-21 06:22:00,45.0,33.0,-100.00,SSW,212,2.0,5.0,62,0.00,,,-99.99,0.000000,,2013-10-21 13:22:00,
2013-10-21 06:31:00,45.0,34.0,-100.00,South,182,2.0,4.0,64,0.00,,,0.00,0.000000,,2013-10-21 13:31:00,
2013-10-21 07:11:00,45.0,34.0,-100.00,South,182,2.0,4.0,64,0.00,,,0.00,0.000000,,2013-10-21 14:11:00,
2013-10-21 07:22:00,45.0,34.0,-100.00,South,182,2.0,4.0,64,0.00,,,0.00,0.000000,,2013-10-21 14:22:00,
2013-10-21 07:31:00,44.0,33.0,-100.00,SSW,201,3.0,3.0,65,-99.99,,,0.00,0.000000,,2013-10-21 14:31:00,
2013-10-21 08:12:00,44.0,33.0,-100.00,SSW,201,3.0,3.0,65,-99.99,,,0.00,0.000000,,2013-10-21 15:12:00,
2013-10-21 08:21:00,44.0,33.0,-100.00,SSW,201,3.0,3.0,65,-99.99,,,0.00,0.000000,,2013-10-21 15:21:00,
2013-10-21 10:31:00,58.0,39.0,-100.00,South,169,3.0,5.0,49,0.00,,,0.00,403.000000,,2013-10-21 17:31:00,
2013-10-21 10:53:00,58.0,39.0,-100.00,South,169,3.0,5.0,49,0.00,,,0.00,403.000000,,2013-10-21 17:53:00,
2013-10-21 11:02:00,58.0,39.0,-100.00,South,169,3.0,5.0,49,0.00,,,0.00,403.000000,,2013-10-21 18:02:00,
2013-10-21 11:12:00,58.0,39.0,-100.00,South,169,3.0,5.0,49,0.00,,,0.00,403.000000,,2013-10-21 18:12:00,
2013-10-21 11:21:00,58.0,39.0,-100.00,South,169,3.0,5.0,49,0.00,,,0.00,403.000000,,2013-10-21 18:21:00,
2013-10-21 11:31:00,61.0,41.0,-100.00,ENE,64,2.0,5.0,48,0.00,,,0.00,524.000000,,2013-10-21 18:31:00,
2013-10-21 12:11:00,61.0,41.0,-100.00,ENE,64,2.0,5.0,48,0.00,,,0.00,524.000000,,2013-10-21 19:11:00,
2013-10-21 12:21:00,61.0,41.0,-100.00,ENE,64,2.0,5.0,48,0.00,,,0.00,524.000000,,2013-10-21 19:21:00,
2013-10-21 12:31:00,66.0,43.0,-100.00,NNE,27,3.0,4.0,43,0.00,,,0.00,593.000000,,2013-10-21 19:31:00,
2013-10-21 12:52:00,66.0,43.0,-100.00,NNE,27,3.0,4.0,43,0.00,,,0.00,593.000000,,2013-10-21 19:52:00,
2013-10-21 13:01:00,66.0,43.0,-100.00,NNE,27,3.0,4.0,43,0.00,,,0.00,593.000000,,2013-10-21 20:01:00,
2013-10-21 13:11:00,66.0,43.0,-100.00,NNE,27,3.0,4.0,43,0.00,,,0.00,593.000000,,2013-10-21 20:11:00,
2013-10-21 13:21:00,66.0,43.0,-100.00,NNE,27,3.0,4.0,43,0.00,,,0.00,593.000000,,2013-10-21 20:21:00,
2013-10-21 13:31:00,66.0,40.0,-100.00,North,3,3.0,5.0,38,0.00,,,-99.99,608.000000,,2013-10-21 20:31:00,
2013-10-21 13:52:00,66.0,40.0,-100.00,North,3,3.0,5.0,38,0.00,,,-99.99,608.000000,,2013-10-21 20:52:00,
2013-10-21 14:03:00,66.0,40.0,-100.00,North,3,3.0,5.0,38,0.00,,,-99.99,608.000000,,2013-10-21 21:03:00,
2013-10-21 14:12:00,66.0,40.0,-100.00,North,3,3.0,5.0,38,0.00,,,-99.99,608.000000,,2013-10-21 21:12:00,
2013-10-21 14:22:00,66.0,40.0,-100.00,North,3,3.0,5.0,38,0.00,,,-99.99,608.000000,,2013-10-21 21:22:00,
2013-10-21 14:31:00,69.0,39.0,-100.00,North,6,3.0,7.0,34,0.00,,,0.00,565.000000,,2013-10-21 21:31:00,
2013-10-21 14:54:00,69.0,39.0,-100.00,North,6,3.0,7.0,34,0.00,,,0.00,565.000000,,2013-10-21 21:54:00,
2013-10-21 15:04:00,69.0,39.0,-100.00,North,6,3.0,7.0,34,0.00,,,0.00,565.000000,,2013-10-21 22:04:00,
2013-10-21 15:13:00,69.0,39.0,-100.00,North,6,3.0,7.0,34,0.00,,,0.00,565.000000,,2013-10-21 22:13:00,
2013-10-21 15:23:00,69.0,39.0,-100.00,North,6,3.0,7.0,34,0.00,,,0.00,565.000000,,2013-10-21 22:23:00,
2013-10-21 15:31:00,70.0,39.0,-100.00,North,8,3.0,6.0,32,0.00,,,0.00,468.000000,,2013-10-21 22:31:00,
2013-10-21 16:12:00,70.0,39.0,-100.00,North,8,3.0,6.0,32,0.00,,,0.00,468.000000,,2013-10-21 23:12:00,
2013-10-21 16:22:00,70.0,39.0,-100.00,North,8,3.0,6.0,32,0.00,,,0.00,468.000000,,2013-10-21 23:22:00,
2013-10-21 16:31:00,69.0,40.0,-100.00,NNE,14,2.0,6.0,35,0.00,,,0.00,328.000000,,2013-10-21 23:31:00,
2013-10-21 16:53:00,69.0,40.0,-100.00,NNE,14,2.0,6.0,35,0.00,,,0.00,328.000000,,2013-10-21 23:53:00,
2013-10-21 17:02:00,69.0,40.0,-100.00,NNE,14,2.0,6.0,35,0.00,,,0.00,328.000000,,2013-10-22 00:02:00,
2013-10-21 17:12:00,69.0,40.0,-100.00,NNE,14,2.0,6.0,35,0.00,,,0.00,328.000000,,2013-10-22 00:12:00,
2013-10-21 17:22:00,69.0,40.0,-100.00,NNE,14,2.0,6.0,35,0.00,,,0.00,328.000000,,2013-10-22 00:22:00,
2013-10-21 17:31:00,62.0,37.0,-100.00,NW,308,2.0,5.0,40,0.00,,,0.00,157.000000,,2013-10-22 00:31:00,
2013-10-21 17:53:00,62.0,37.0,-100.00,NW,308,2.0,5.0,40,0.00,,,0.00,157.000000,,2013-10-22 00:53:00,
2013-10-21 18:02:00,62.0,37.0,-100.00,NW,308,2.0,5.0,40,0.00,,,0.00,157.000000,,2013-10-22 01:02:00,
2013-10-21 18:12:00,62.0,37.0,-100.00,NW,308,2.0,5.0,40,0.00,,,0.00,157.000000,,2013-10-22 01:12:00,
2013-10-21 18:21:00,62.0,37.0,-100.00,NW,308,2.0,5.0,40,0.00,,,0.00,157.000000,,2013-10-22 01:21:00,
2013-10-21 18:31:00,55.0,38.0,-100.00,NW,311,2.0,3.0,52,0.00,,,0.00,8.000000,,2013-10-22 01:31:00,
2013-10-21 18:52:00,55.0,38.0,-100.00,NW,311,2.0,3.0,52,0.00,,,0.00,8.000000,,2013-10-22 01:52:00,
2013-10-21 19:02:00,55.0,38.0,-100.00,NW,311,2.0,3.0,52,0.00,,,0.00,8.000000,,2013-10-22 02:02:00,
2013-10-21 19:11:00,55.0,38.0,-100.00,NW,311,2.0,3.0,52,0.00,,,0.00,8.000000,,2013-10-22 02:11:00,
2013-10-21 19:22:00,55.0,38.0,-100.00,NW,311,2.0,3.0,52,0.00,,,0.00,8.000000,,2013-10-22 02:22:00,
2013-10-21 19:31:00,54.0,36.0,-100.00,NW,313,1.0,5.0,50,0.00,,,0.00,0.000000,,2013-10-22 02:31:00,
2013-10-21 19:52:00,54.0,36.0,-100.00,NW,313,1.0,5.0,50,0.00,,,0.00,0.000000,,2013-10-22 02:52:00,
2013-10-21 20:03:00,54.0,36.0,-100.00,NW,313,1.0,5.0,50,0.00,,,0.00,0.000000,,2013-10-22 03:03:00,
2013-10-21 20:12:00,54.0,36.0,-100.00,NW,313,1.0,5.0,50,0.00,,,0.00,0.000000,,2013-10-22 03:12:00,
2013-10-21 20:22:00,54.0,36.0,-100.00,NW,313,1.0,5.0,50,0.00,,,0.00,0.000000,,2013-10-22 03:22:00,
2013-10-21 20:31:00,53.0,37.0,-100.00,WNW,299,0.0,2.0,55,0.00,,,0.00,0.000000,,2013-10-22 03:31:00,
2013-10-21 20:55:00,53.0,37.0,-100.00,WNW,299,0.0,2.0,55,0.00,,,0.00,0.000000,,2013-10-22 03:55:00,
2013-10-21 21:05:00,53.0,37.0,-100.00,WNW,299,0.0,2.0,55,0.00,,,0.00,0.000000,,2013-10-22 04:05:00,
2013-10-21 21:13:00,53.0,37.0,-100.00,WNW,299,0.0,2.0,55,0.00,,,0.00,0.000000,,2013-10-22 04:13:00,
2013-10-21 21:24:00,53.0,37.0,-100.00,WNW,299,0.0,2.0,55,0.00,,,0.00,0.000000,,2013-10-22 04:24:00,
2013-10-21 22:52:00,51.0,37.0,-100.00,SSW,195,2.0,3.0,58,0.00,,,0.00,0.000000,,2013-10-22 05:52:00,
2013-10-21 23:02:00,51.0,37.0,-100.00,SSW,195,2.0,3.0,58,0.00,,,0.00,0.000000,,2013-10-22 06:02:00,
2013-10-21 23:31:00,49.0,35.0,-100.00,South,182,1.0,5.0,59,-99.99,,,0.00,0.000000,,2013-10-22 06:31:00,
2013-10-21 23:53:00,49.0,35.0,-100.00,South,182,1.0,5.0,59,-99.99,,,0.00,0.000000,,2013-10-22 06:53:00,